This demonstration page uses our WeatherBlox Daily Observations layout. Learn more.

Left ArrowRight Arrow

39.12711, -84.51439

Hourly Observations for March 9, 2021

Temp ( °F °C ) Dew Point ( °F °C ) Humidity (%) Winds ( mph kmh ) Pressure ( in mb ) Visibility ( mi km ) Precip ( " mm )
12:53 am 00:53 Clear 39 3.9 35 1.7 86 86 Calm 30.41 1030 10 16.0934 0 0
1:53 am 01:53 Clear 37 2.8 32 0 82 82 Calm 30.41 1030 10 16.0934 0 0
2:53 am 02:53 Clear 36 2.2 33 0.6 89 89 Calm 30.41 1030 10 16.0934 0 0
3:53 am 03:53 Clear 35 1.7 31 -0.6 85 85 Calm 30.4 1030 10 16.0934 0 0
4:53 am 04:53 Clear 34 1.1 31 -0.6 89 89 Calm 30.42 1030 10 16.0934 0 0
5:53 am 05:53 Clear 34 1.1 30 -1.1 85 85 Calm 30.43 1031 10 16.0934 0 0
6:53 am 06:53 Clear 33 0.6 29 -1.7 85 85 Calm 30.45 1031 10 16.0934 0 0
7:53 am 07:53 Sunny 33 0.6 30 -1.1 89 89 Calm 30.46 1031 10 16.0934 0 0
8:53 am 08:53 Sunny 39 3.9 34 1.1 82 82 Calm 30.47 1032 10 16.0934 0 0
9:53 am 09:53 Sunny 47 8.3 35 1.7 63 63 Calm 30.46 1032 10 16.0934 0 0
10:53 am 10:53 Sunny 57 13.9 35 1.7 44 44 SSW 3 6 30.44 1031 10 16.0934 0 0
11:53 am 11:53 Sunny 63 17.2 29 -1.7 28 28 S 7 11 30.42 1030 10 16.0934 0.03 0.762
12:53 pm 12:53 Sunny 65 18.3 28 -2.2 25 25 SSW 14 22 30.4 1029 10 16.0934 0.08 2.032
1:53 pm 13:53 Sunny 65 18.3 29 -1.7 26 26 SSW 13 20 30.37 1029 10 16.0934 0 0
2:53 pm 14:53 Sunny 68 20 30 -1.1 24 24 WSW 10 17 30.35 1028 10 16.0934 0 0
3:53 pm 15:53 Sunny 69 20.6 26 -3.3 20 20 SW 14 22 30.33 1027 10 16.0934 0 0
4:53 pm 16:53 Sunny 67 19.4 27 -2.8 22 22 SW 13 20 30.31 1026 10 16.0934 0 0
5:53 pm 17:53 Sunny 65 18.3 28 -2.2 25 25 SSW 12 19 30.29 1026 10 16.0934 0 0
6:53 pm 18:53 Clear 57 13.9 30 -1.1 36 36 SSW 8 13 30.3 1026 10 16.0934 0 0
7:53 pm 19:53 Clear 52 11.1 30 -1.1 43 43 Calm 30.31 1026 10 16.0934 0 0
8:53 pm 20:53 Clear 47 8.3 35 1.7 63 63 Calm 30.31 1026 10 16.0934 0 0
9:53 pm 21:53 Clear 44 6.7 35 1.7 71 71 Calm 30.32 1027 10 16.0934 0 0
10:53 pm 22:53 Clear 43 6.1 34 1.1 71 71 Calm 30.31 1027 10 16.0934 0 0
11:53 pm 23:53 Clear 41 5 32 0 70 70 Calm 30.31 1026 10 16.0934 0 0

Powered by AerisWeather